Погода в Вараксино

Россия / Вологодская область     58°36′21″N   40°26′23″E
темп.,
°C
ветер,
м/с
пор.,
м/с
влажн.,
%
обл.,
%
осадки,
мм/ч
давл.,
гПа
погр.,
м
29 июня, ср
ср2900:00+8св25720 0.0 102587
03:00+7ссв22785 0.0 102640
06:00+11св23655 0.0 1025160
09:00+16ссв24400 0.0 10251163
12:00+19ссв23330 0.0 10231587
15:00+21с33310 0.0 10221832
18:00+20ссз34438 0.0 10211310
21:00+14сз2461100 0.0 102064
30 июня, чт
чт3000:00+11ссз246910 0.0 102056
03:00+9ссз22770 0.0 102036
06:00+13ссз38674 0.0 1019203
09:00+19ссз48445 0.0 1018875
12:00+21с573766 0.0 10181467
15:00+23с58383 0.0 10172320
18:00+22ссв484638 0.0 10162256
21:00+15ссв25685 0.0 101872
1 июля, пт
пт100:00+11св24725 0.0 102067
03:00+9св22773 0.0 102115
06:00+12ссв23655 0.0 1021130
09:00+18св25435 0.0 10211131
12:00+21ссв35333 0.0 10211858
15:00+22ссв3533100 0.0 10201880
18:00+22с244662 0.0 10191704
21:00+15зсз117153 0.0 101911
2 июля, сб
сб200:00+13зсз2270100 0.0 101945
03:00+15зсз31061100 0.0 1018211
06:00+16сз286916 0.0 1017235
09:00+21ссз366831 0.0 1016451
12:00+26с47455 0.2 10152041
15:00+26с57395 0.2 10142236
18:00+24ссв47475 0.0 10141582
21:00+17ссв23740 0.0 101653
3 июля, вс
вс300:00+13в11925 0.0 101712
03:00+11вюв00935 0.0 101710
06:00+15сз11776 0.0 1017104
09:00+21с23565 0.0 1016939
12:00+25ссз23434 0.0 10151671
15:00+26с34390 0.0 10141907
18:00+24ссз34525 0.0 10131117
21:00+18сз22730 0.0 101321